Content
SEND FEEDBACK

Daily
Averages
Monthly
Summary
Canada

VANCOUVER, BRITISH COLUMBIA


Home > North America > Canada > British Columbia
Elevation: 7 feet     Latitude: 49 11N     Longitude: 123 10W

WEATHER
 
SELECT A DAY
Number of Records: 249,704;   Date Range: 5/15/97 - 8/31/14
 
SHARE

PRINT THIS DATA

[ ← Previous Day ]
WEATHER ALMANAC - SEPTEMBER 15, 2013
[ Next Day → ]
[ °C ]   °F
Weather ElementAverageHighLow
Temperature56.4 °F60.8 °F (4:35 pm)53.6 °F (12:35 am)
Dewpoint55.8 °F59 °F (2:15 pm)53.6 °F (12:35 am)
Humidity98.1 %100 % (12:35 am)88 % (4:35 pm)
Barometer29.73 in29.77 in (7:55 pm)29.70 in (8:15 am)
Wind Speed6.2 mph16.1 mph (3:35 pm)
Wind Gust26.5 mph (1:15 pm)
Weather ElementAverage
Visibility5.8 mi
Wind DirectionESE (111.3 °)

Weather ElementTotal
Precipitation0.12 in
Heating Degree Days7.8 (Base 65)
Growing Degree Days7.2 (Base 50)
Averaged from 71 records on September 15, 2013
WEATHER CONDITIONS BREAKOUT
WIND DIRECTION BREAKOUT
WEATHER BY HOUR - SEPTEMBER 15, 2013
[ °C ]   °F
Local TimeTemperatureDewpointHumidityBarometerVisibilityWind DirectionWind SpeedGust SpeedPrecipitationEventsConditions
12:35 AM53.6 °F53.6 °F100 %29.74 in0.5 miCalmFogFog
12:55 AM53.6 °F53.6 °F100 %29.74 in0.5 miCalmFogFog
1:15 AM53.6 °F53.6 °F100 %29.74 in0.2 miCalmFogFog
1:35 AM53.6 °F53.6 °F100 %29.74 in0.8 miCalmOvercast
1:55 AM53.6 °F53.6 °F100 %29.74 in0.8 miCalmOvercast
2:15 AM53.6 °F53.6 °F100 %29.73 in0.2 miCalmFogFog
2:35 AM53.6 °F53.6 °F100 %29.73 in0.2 miCalmFogFog
2:55 AM53.6 °F53.6 °F100 %29.73 in0.2 miCalmFogFog
3:15 AM53.6 °F53.6 °F100 %29.72 in0.8 miCalmOvercast
3:35 AM53.6 °F53.6 °F100 %29.72 in0.5 miCalmFogFog
3:55 AM53.6 °F53.6 °F100 %29.72 in1.5 miCalmOvercast
4:15 AM53.6 °F53.6 °F100 %29.72 in3.0 miCalmOvercast
4:35 AM53.6 °F53.6 °F100 %29.72 in1.0 miCalmOvercast
4:55 AM53.6 °F53.6 °F100 %29.71 in3.0 miCalmOvercast
5:15 AM53.6 °F53.6 °F100 %29.71 in1.0 miCalmOvercast
5:35 AM53.6 °F53.6 °F100 %29.71 in1.2 miCalmOvercast
5:55 AM53.6 °F53.6 °F100 %29.71 in3.0 miNorthOvercast
6:15 AM53.6 °F53.6 °F100 %29.71 in2.0 miCalmOvercast
6:35 AM53.6 °F53.6 °F100 %29.71 in1.2 miCalmOvercast
6:55 AM55.4 °F55.4 °F100 %29.71 in1.0 miCalmOvercast
7:15 AM55.4 °F55.4 °F100 %29.71 in0.2 miNorthFogFog
7:35 AM55.4 °F55.4 °F100 %29.71 in0.2 miCalmFogFog
7:55 AM55.4 °F55.4 °F100 %29.71 in0.2 miNorthFogFog
8:15 AM55.4 °F55.4 °F100 %29.70 in0.2 miSouth (180°)3.5 mphFogFog
8:35 AM53.6 °F53.6 °F100 %29.70 in0.8 miNorthOvercast
8:55 AM53.6 °F53.6 °F100 %29.70 in1.8 miCalmOvercast
9:15 AM53.6 °F53.6 °F100 %29.70 in3.0 miCalmOvercast
9:35 AM53.6 °F53.6 °F100 %29.70 in8.0 miSouth (190°)4.6 mphOvercast
9:55 AM55.4 °F55.4 °F100 %29.70 in4.0 miCalmOvercast
10:15 AM55.4 °F55.4 °F100 %29.70 in5.0 miSouth (180°)3.5 mphOvercast
10:35 AM55.4 °F55.4 °F100 %29.71 in10.0 miSouth (170°)4.6 mphOvercast
10:55 AM55.4 °F55.4 °F100 %29.71 in9.0 miSSW (200°)10.4 mphOvercast
11:15 AM57.2 °F57.2 °F100 %29.71 in10.0 miSouth (180°)12.7 mph17.3 mphMostly Cloudy
11:35 AM57.2 °F57.2 °F100 %29.72 in10.0 miSouth (180°)10.4 mph17.3 mphClear
11:55 AM57.2 °F55.4 °F94 %29.73 in10.0 miSouth (190°)12.7 mph17.3 mphClear
12:15 PM55.4 °F55.4 °F100 %29.74 in4.0 miSSW (200°)15.0 mph19.6 mphRainLight Rain
12:35 PM55.4 °F55.4 °F100 %29.73 in8.0 miSouth (190°)8.1 mph16.1 mphRainLight Rain
12:55 PM57.2 °F55.4 °F94 %29.70 in9.0 miESE (120°)4.6 mphRainLight Rain
1:15 PM57.2 °F57.2 °F100 %29.72 in8.0 miEast (100°)11.5 mph26.5 mphRainLight Rain
1:35 PM57.2 °F57.2 °F100 %29.70 in10.0 miSE (140°)4.6 mphPartly Cloudy
1:55 PM59.0 °F57.2 °F94 %29.72 in8.0 miSouth (190°)10.4 mph16.1 mphRainLight Rain
2:15 PM59.0 °F59.0 °F100 %29.72 in7.0 miSSE (160°)6.9 mphRainLight Rain
2:35 PM57.2 °F57.2 °F100 %29.72 in10.0 miSSW (200°)3.5 mphScattered Clouds
2:55 PM57.2 °F57.2 °F100 %29.72 in10.0 miSouth (190°)15.0 mph24.2 mphScattered Clouds
3:15 PM59.0 °F57.2 °F94 %29.72 in10.0 miSouth (180°)9.2 mphPartly Cloudy
3:35 PM59.0 °F57.2 °F94 %29.73 in10.0 miSouth (190°)16.1 mph24.2 mphClear
3:55 PM57.2 °F57.2 °F100 %29.74 in10.0 miSouth (180°)8.1 mph17.3 mphMostly Cloudy
4:15 PM59.0 °F57.2 °F94 %29.73 in10.0 miSouth (190°)12.7 mph19.6 mphScattered Clouds
4:35 PM60.8 °F57.2 °F88 %29.72 in10.0 miSSW (200°)16.1 mphClear
4:55 PM59.0 °F57.2 °F94 %29.72 in10.0 miSouth (190°)13.8 mph19.6 mphPartly Cloudy
5:15 PM59.0 °F57.2 °F94 %29.71 in10.0 miSouth (190°)8.1 mphPartly Cloudy
5:35 PM60.8 °F57.2 °F88 %29.70 in10.0 miSouth (180°)4.6 mphPartly Cloudy
5:55 PM59.0 °F57.2 °F94 %29.71 in10.0 miSouth (180°)11.5 mph23.0 mphPartly Cloudy
6:15 PM59.0 °F57.2 °F94 %29.73 in3.0 miSouth (170°)9.2 mph20.7 mphRainRain
6:35 PM59.0 °F57.2 °F94 %29.74 in3.0 miSouth (170°)11.5 mph25.3 mphRainRain
6:55 PM59.0 °F57.2 °F94 %29.75 in10.0 miSouth (170°)9.2 mph17.3 mphMostly Cloudy
7:15 PM59.0 °F57.2 °F94 %29.76 in8.0 miSouth (180°)9.2 mphRainLight Rain
7:35 PM59.0 °F59.0 °F100 %29.75 in6.0 miSSW (200°)15.0 mph18.4 mph0.05 inRainLight Rain
7:55 PM59.0 °F59.0 °F100 %29.77 in7.0 miSouth (180°)6.9 mph0.07 inRainLight Rain
8:15 PM59.0 °F59.0 °F100 %29.75 in10.0 miSouth (180°)6.9 mphRainLight Rain
8:35 PM59.0 °F57.2 °F94 %29.76 in8.0 miSSE (160°)5.8 mph17.3 mphRainLight Rain
8:55 PM59.0 °F57.2 °F94 %29.75 in10.0 miSouth (170°)4.6 mphRainLight Rain
9:15 PM59.0 °F57.2 °F94 %29.76 in10.0 miSouth (170°)5.8 mphMostly Cloudy
9:35 PM59.0 °F57.2 °F94 %29.76 in10.0 miSouth (180°)9.2 mphOvercast
9:55 PM59.0 °F57.2 °F94 %29.75 in10.0 miSouth (190°)10.4 mphOvercast
10:15 PM57.2 °F57.2 °F100 %29.75 in10.0 miSouth (190°)9.2 mph16.1 mphOvercast
10:35 PM57.2 °F57.2 °F100 %29.75 in10.0 miSouth (190°)10.4 mph16.1 mphOvercast
10:55 PM57.2 °F57.2 °F100 %29.75 in10.0 miSouth (190°)16.1 mph20.7 mphOvercast
11:15 PM57.2 °F57.2 °F100 %29.75 in10.0 miSouth (190°)12.7 mph18.4 mphMostly Cloudy
11:35 PM57.2 °F57.2 °F100 %29.76 in10.0 miSouth (190°)9.2 mphOvercast
11:55 PM57.2 °F57.2 °F100 %29.76 in10.0 miSouth (190°)11.5 mphOvercast
Hourly data recorded from CZBB, located miles away from Vancouver, British Columbia







STORIES FROM OUR PARTNERS